Torna al catalogo

SL-12 R/B(2)

AttivoGEO
NORAD 14943·ROCKET BODY·🇷🇺 Russia

Lanciato Apr 22, 1984 da Baikonur Cosmodrome

Loading…

TLE

AggiornatoSource: Space-Track

Epoca: Sep 14, 2026, 21:24 UTC

1 14943U 84041D   26257.89166728 -.00000257  00000-0  00000-0 0  9992
2 14943   9.4330 314.5165 0014840 228.9858 290.1077  0.98629905122162

Traccia SL-12 R/B(2) in tempo reale con AllMySat

Download on the App Store